Time,TemperatureF,DewpointF,PressureIn,WindDirection,WindDirectionDegrees,WindSpeedMPH,WindSpeedGustMPH,Humidity,HourlyPrecipIn,Conditions,Clouds,dailyrainin,SoftwareType,DateUTC
2013-05-26 00:05:00,65.5,61.0,30.09,ESE,103,0.0,1.0,86,0.00,,,0.00,weatherlink.com 1.10,2013-05-26 05:05:00,
2013-05-26 00:20:00,65.1,61.0,30.09,ESE,107,0.0,1.0,87,0.00,,,0.00,weatherlink.com 1.10,2013-05-26 05:20:00,
2013-05-26 00:35:00,64.8,61.0,30.10,ESE,108,1.0,1.0,87,0.00,,,0.00,weatherlink.com 1.10,2013-05-26 05:35:00,
2013-05-26 00:50:00,64.7,61.0,30.10,ESE,110,0.0,1.0,87,0.00,,,0.00,weatherlink.com 1.10,2013-05-26 05:50:00,
2013-05-26 01:05:00,64.4,61.0,30.09,ESE,111,0.0,1.0,88,0.00,,,0.00,weatherlink.com 1.10,2013-05-26 06:05:00,
2013-05-26 01:20:00,64.2,61.0,30.09,ESE,102,0.0,1.0,88,0.00,,,0.00,weatherlink.com 1.10,2013-05-26 06:20:00,
2013-05-26 01:35:00,63.7,61.0,30.09,East,101,0.0,1.0,89,0.00,,,0.00,weatherlink.com 1.10,2013-05-26 06:35:00,
2013-05-26 01:50:00,63.5,60.0,30.09,ESE,102,1.0,1.0,89,0.00,,,0.00,weatherlink.com 1.10,2013-05-26 06:50:00,
2013-05-26 02:05:00,63.3,60.0,30.09,ESE,114,1.0,1.0,89,0.00,,,0.00,weatherlink.com 1.10,2013-05-26 07:05:00,
2013-05-26 02:20:00,63.2,60.0,30.08,ESE,107,0.0,2.0,89,0.00,,,0.00,weatherlink.com 1.10,2013-05-26 07:20:00,
2013-05-26 02:35:00,63.1,60.0,30.08,SE,127,1.0,3.0,89,0.00,,,0.00,weatherlink.com 1.10,2013-05-26 07:35:00,
2013-05-26 02:50:00,62.8,60.0,30.07,ESE,111,1.0,3.0,90,0.00,,,0.00,weatherlink.com 1.10,2013-05-26 07:50:00,
2013-05-26 03:05:00,62.7,60.0,30.06,ESE,117,1.0,2.0,90,0.00,,,0.00,weatherlink.com 1.10,2013-05-26 08:05:00,
2013-05-26 03:20:00,62.6,60.0,30.06,ESE,110,1.0,2.0,90,0.00,,,0.00,weatherlink.com 1.10,2013-05-26 08:20:00,
2013-05-26 03:35:00,62.4,60.0,30.06,ESE,114,0.0,2.0,90,0.00,,,0.00,weatherlink.com 1.10,2013-05-26 08:35:00,
2013-05-26 03:50:00,62.1,59.0,30.06,East,101,1.0,1.0,90,0.00,,,0.00,weatherlink.com 1.10,2013-05-26 08:50:00,
2013-05-26 04:05:00,61.7,59.0,30.07,East,101,1.0,1.0,91,0.00,,,0.00,weatherlink.com 1.10,2013-05-26 09:05:00,
2013-05-26 04:20:00,61.5,59.0,30.06,ESE,108,2.0,2.0,91,0.00,,,0.00,weatherlink.com 1.10,2013-05-26 09:20:00,
2013-05-26 04:35:00,61.3,59.0,30.06,East,93,2.0,2.0,91,0.00,,,0.00,weatherlink.com 1.10,2013-05-26 09:35:00,
2013-05-26 04:50:00,61.1,59.0,30.06,East,94,2.0,2.0,91,0.00,,,0.00,weatherlink.com 1.10,2013-05-26 09:50:00,
2013-05-26 05:05:00,60.9,58.0,30.06,East,98,1.0,2.0,91,0.00,,,0.00,weatherlink.com 1.10,2013-05-26 10:05:00,
2013-05-26 05:20:00,60.7,58.0,30.06,ESE,112,1.0,2.0,92,0.00,,,0.00,weatherlink.com 1.10,2013-05-26 10:20:00,
2013-05-26 05:35:00,60.6,58.0,30.06,ESE,110,1.0,2.0,92,0.00,,,0.00,weatherlink.com 1.10,2013-05-26 10:35:00,
2013-05-26 05:50:00,60.5,58.0,30.06,ESE,110,0.0,2.0,92,0.00,,,0.00,weatherlink.com 1.10,2013-05-26 10:50:00,
2013-05-26 06:05:00,60.1,58.0,30.06,ESE,107,2.0,2.0,92,0.00,,,0.00,weatherlink.com 1.10,2013-05-26 11:05:00,
2013-05-26 06:20:00,59.9,58.0,30.06,ESE,107,2.0,2.0,93,0.00,,,0.00,weatherlink.com 1.10,2013-05-26 11:20:00,
2013-05-26 06:35:00,60.5,58.0,30.07,ESE,108,1.0,2.0,92,0.00,,,0.00,weatherlink.com 1.10,2013-05-26 11:35:00,
2013-05-26 06:50:00,61.0,58.0,30.07,ESE,112,2.0,2.0,91,0.00,,,0.00,weatherlink.com 1.10,2013-05-26 11:50:00,
2013-05-26 07:05:00,61.9,59.0,30.07,East,98,2.0,2.0,90,0.00,,,0.00,weatherlink.com 1.10,2013-05-26 12:05:00,
2013-05-26 07:20:00,62.9,60.0,30.08,ESE,110,1.0,2.0,89,0.00,,,0.00,weatherlink.com 1.10,2013-05-26 12:20:00,
2013-05-26 07:35:00,64.6,61.0,30.07,ESE,108,2.0,3.0,87,0.00,,,0.00,weatherlink.com 1.10,2013-05-26 12:35:00,
2013-05-26 07:50:00,65.5,61.0,30.08,East,96,3.0,3.0,85,0.00,,,0.00,weatherlink.com 1.10,2013-05-26 12:50:00,
2013-05-26 08:05:00,66.2,61.0,30.07,ESE,106,2.0,3.0,83,0.00,,,0.00,weatherlink.com 1.10,2013-05-26 13:05:00,
2013-05-26 08:20:00,67.8,62.0,30.07,East,95,3.0,3.0,82,0.00,,,0.00,weatherlink.com 1.10,2013-05-26 13:20:00,
2013-05-26 08:36:00,69.0,63.0,30.07,ESE,103,2.0,3.0,81,0.00,,,0.00,weatherlink.com 1.10,2013-05-26 13:36:00,
2013-05-26 08:51:00,70.1,63.0,30.07,East,86,1.0,4.0,79,0.00,,,0.00,weatherlink.com 1.10,2013-05-26 13:51:00,
2013-05-26 09:06:00,71.6,64.0,30.08,ESE,106,2.0,3.0,77,0.00,,,0.00,weatherlink.com 1.10,2013-05-26 14:06:00,
2013-05-26 09:21:00,72.7,65.0,30.07,ESE,107,2.0,3.0,76,0.00,,,0.00,weatherlink.com 1.10,2013-05-26 14:21:00,
2013-05-26 09:36:00,73.9,65.0,30.07,ESE,116,1.0,4.0,74,0.00,,,0.00,weatherlink.com 1.10,2013-05-26 14:36:00,
2013-05-26 09:51:00,74.1,65.0,30.07,SE,127,3.0,5.0,73,0.00,,,0.00,weatherlink.com 1.10,2013-05-26 14:51:00,
2013-05-26 10:06:00,74.7,66.0,30.07,ESE,110,3.0,5.0,73,0.00,,,0.00,weatherlink.com 1.10,2013-05-26 15:06:00,
2013-05-26 10:21:00,76.0,66.0,30.07,ESE,121,2.0,6.0,71,0.00,,,0.00,weatherlink.com 1.10,2013-05-26 15:21:00,
2013-05-26 10:36:00,77.1,66.0,30.07,NNE,27,3.0,6.0,68,0.00,,,0.00,weatherlink.com 1.10,2013-05-26 15:36:00,
2013-05-26 10:51:00,77.4,66.0,30.07,SE,131,2.0,7.0,69,0.00,,,0.00,weatherlink.com 1.10,2013-05-26 15:51:00,
2013-05-26 11:06:00,78.1,67.0,30.07,ENE,65,2.0,5.0,68,0.00,,,0.00,weatherlink.com 1.10,2013-05-26 16:06:00,
2013-05-26 11:21:00,79.0,67.0,30.07,SE,142,3.0,6.0,66,0.00,,,0.00,weatherlink.com 1.10,2013-05-26 16:21:00,
2013-05-26 11:36:00,79.9,67.0,30.07,ESE,115,4.0,9.0,65,0.00,,,0.00,weatherlink.com 1.10,2013-05-26 16:36:00,
2013-05-26 11:51:00,80.9,68.0,30.07,ESE,114,3.0,6.0,66,0.00,,,0.00,weatherlink.com 1.10,2013-05-26 16:51:00,
2013-05-26 12:06:00,79.3,67.0,30.07,West,263,2.0,6.0,67,0.00,,,0.00,weatherlink.com 1.10,2013-05-26 17:06:00,
2013-05-26 12:21:00,79.6,68.0,30.06,East,91,2.0,7.0,68,0.00,,,0.00,weatherlink.com 1.10,2013-05-26 17:21:00,
2013-05-26 12:36:00,80.3,68.0,30.05,East,101,2.0,7.0,66,0.00,,,0.00,weatherlink.com 1.10,2013-05-26 17:36:00,
2013-05-26 12:51:00,82.1,69.0,30.05,NE,49,2.0,10.0,64,0.00,,,0.00,weatherlink.com 1.10,2013-05-26 17:51:00,
2013-05-26 13:06:00,82.6,69.0,30.04,SSW,200,1.0,7.0,63,0.00,,,0.00,weatherlink.com 1.10,2013-05-26 18:06:00,
2013-05-26 13:21:00,82.7,69.0,30.03,West,273,1.0,7.0,64,0.00,,,0.00,weatherlink.com 1.10,2013-05-26 18:21:00,
2013-05-26 13:36:00,82.2,68.0,30.02,ENE,78,5.0,5.0,63,0.00,,,0.00,weatherlink.com 1.10,2013-05-26 18:36:00,
2013-05-26 13:51:00,83.9,67.0,30.02,SE,139,2.0,7.0,58,0.00,,,0.00,weatherlink.com 1.10,2013-05-26 18:51:00,
2013-05-26 14:07:00,83.6,70.0,30.01,ESE,105,1.0,6.0,63,0.00,,,0.00,weatherlink.com 1.10,2013-05-26 19:07:00,
2013-05-26 14:22:00,83.9,68.0,30.01,East,79,3.0,8.0,59,0.00,,,0.00,weatherlink.com 1.10,2013-05-26 19:22:00,
2013-05-26 14:37:00,85.5,69.0,30.00,WSW,249,3.0,6.0,59,0.00,,,0.00,weatherlink.com 1.10,2013-05-26 19:37:00,
2013-05-26 14:52:00,84.3,67.0,30.00,ENE,68,2.0,9.0,57,0.00,,,0.00,weatherlink.com 1.10,2013-05-26 19:52:00,
2013-05-26 15:07:00,84.3,67.0,29.99,SSW,198,3.0,11.0,57,0.00,,,0.00,weatherlink.com 1.10,2013-05-26 20:07:00,
2013-05-26 15:22:00,84.7,68.0,29.98,SE,131,3.0,6.0,57,0.00,,,0.00,weatherlink.com 1.10,2013-05-26 20:22:00,
2013-05-26 15:37:00,84.6,68.0,29.98,ESE,122,2.0,8.0,58,0.00,,,0.00,weatherlink.com 1.10,2013-05-26 20:37:00,
2013-05-26 15:52:00,82.5,68.0,29.97,ENE,74,1.0,4.0,62,0.00,,,0.00,weatherlink.com 1.10,2013-05-26 20:52:00,
2013-05-26 16:07:00,83.3,68.0,29.97,ESE,113,2.0,8.0,60,0.00,,,0.00,weatherlink.com 1.10,2013-05-26 21:07:00,
2013-05-26 16:22:00,84.8,69.0,29.96,North,350,2.0,6.0,60,0.00,,,0.00,weatherlink.com 1.10,2013-05-26 21:22:00,
2013-05-26 16:37:00,83.4,68.0,29.96,East,81,2.0,6.0,61,0.00,,,0.00,weatherlink.com 1.10,2013-05-26 21:37:00,
2013-05-26 16:52:00,83.5,69.0,29.95,NNE,27,2.0,5.0,61,0.00,,,0.00,weatherlink.com 1.10,2013-05-26 21:52:00,
2013-05-26 17:07:00,83.9,68.0,29.95,ESE,113,3.0,4.0,59,0.00,,,0.00,weatherlink.com 1.10,2013-05-26 22:07:00,
2013-05-26 17:22:00,82.9,67.0,29.95,East,87,2.0,8.0,59,0.00,,,0.00,weatherlink.com 1.10,2013-05-26 22:22:00,
2013-05-26 17:39:00,83.1,66.0,29.94,ESE,112,3.0,8.0,57,0.00,,,0.00,weatherlink.com 1.10,2013-05-26 22:39:00,
2013-05-26 17:53:00,82.4,67.0,29.94,ESE,121,5.0,7.0,59,0.00,,,0.00,weatherlink.com 1.10,2013-05-26 22:53:00,
2013-05-26 18:07:00,81.8,66.0,29.94,ESE,118,2.0,7.0,59,0.00,,,0.00,weatherlink.com 1.10,2013-05-26 23:07:00,
2013-05-26 18:22:00,80.8,66.0,29.94,ESE,109,1.0,5.0,60,0.00,,,0.00,weatherlink.com 1.10,2013-05-26 23:22:00,
2013-05-26 18:37:00,81.1,66.0,29.93,ENE,68,1.0,4.0,61,0.00,,,0.00,weatherlink.com 1.10,2013-05-26 23:37:00,
2013-05-26 18:52:00,80.8,67.0,29.93,SE,127,1.0,3.0,64,0.00,,,0.00,weatherlink.com 1.10,2013-05-26 23:52:00,
2013-05-26 19:07:00,79.9,67.0,29.93,ESE,117,3.0,8.0,65,0.00,,,0.00,weatherlink.com 1.10,2013-05-27 00:07:00,
2013-05-26 19:22:00,78.7,67.0,29.94,East,89,2.0,6.0,67,0.00,,,0.00,weatherlink.com 1.10,2013-05-27 00:22:00,
2013-05-26 19:37:00,77.4,66.0,29.94,ENE,68,3.0,6.0,69,0.00,,,0.00,weatherlink.com 1.10,2013-05-27 00:37:00,
2013-05-26 19:52:00,76.3,66.0,29.94,SSE,155,1.0,4.0,71,0.00,,,0.00,weatherlink.com 1.10,2013-05-27 00:52:00,
2013-05-26 20:07:00,75.5,66.0,29.94,SSE,160,1.0,3.0,73,0.00,,,0.00,weatherlink.com 1.10,2013-05-27 01:07:00,
2013-05-26 20:22:00,74.7,66.0,29.94,SE,126,1.0,4.0,74,0.00,,,0.00,weatherlink.com 1.10,2013-05-27 01:22:00,
2013-05-26 20:37:00,73.8,66.0,29.94,ESE,107,2.0,3.0,76,0.00,,,0.00,weatherlink.com 1.10,2013-05-27 01:37:00,
2013-05-26 20:52:00,73.3,66.0,29.94,SE,131,1.0,3.0,77,0.00,,,0.00,weatherlink.com 1.10,2013-05-27 01:52:00,
2013-05-26 21:07:00,72.8,66.0,29.94,SE,129,1.0,3.0,78,0.00,,,0.00,weatherlink.com 1.10,2013-05-27 02:07:00,
2013-05-26 21:22:00,72.4,66.0,29.95,ESE,102,1.0,3.0,79,0.00,,,0.00,weatherlink.com 1.10,2013-05-27 02:22:00,
2013-05-26 21:37:00,72.0,66.0,29.95,ESE,115,3.0,3.0,80,0.00,,,0.00,weatherlink.com 1.10,2013-05-27 02:37:00,
2013-05-26 21:52:00,71.9,66.0,29.96,SE,127,1.0,4.0,81,0.00,,,0.00,weatherlink.com 1.10,2013-05-27 02:52:00,
2013-05-26 22:07:00,71.5,66.0,29.96,East,94,2.0,5.0,82,0.00,,,0.00,weatherlink.com 1.10,2013-05-27 03:07:00,
2013-05-26 22:22:00,71.1,66.0,29.95,SE,128,3.0,4.0,83,0.00,,,0.00,weatherlink.com 1.10,2013-05-27 03:22:00,
2013-05-26 22:37:00,70.8,66.0,29.95,East,96,2.0,4.0,84,0.00,,,0.00,weatherlink.com 1.10,2013-05-27 03:37:00,
2013-05-26 22:52:00,70.6,66.0,29.95,ESE,120,2.0,7.0,84,0.00,,,0.00,weatherlink.com 1.10,2013-05-27 03:52:00,
2013-05-26 23:07:00,70.4,65.0,29.95,NE,46,1.0,4.0,83,0.00,,,0.00,weatherlink.com 1.10,2013-05-27 04:07:00,
2013-05-26 23:22:00,69.7,65.0,29.96,East,94,1.0,2.0,84,0.00,,,0.00,weatherlink.com 1.10,2013-05-27 04:22:00,
2013-05-26 23:37:00,69.0,64.0,29.95,ESE,122,1.0,2.0,85,0.00,,,0.00,weatherlink.com 1.10,2013-05-27 04:37:00,
2013-05-26 23:52:00,68.4,64.0,29.95,SE,134,2.0,4.0,86,0.00,,,0.00,weatherlink.com 1.10,2013-05-27 04:52:00,